Flag for Brazil Weather past 2 weeks in Caxias do Sul, Rio Grande do Sul, Brazil

Now
82 °F

Passing clouds.


Feels Like: 87 °F
Forecast: N/A
Wind: 12 mph from East

Location: Porto Alegre Aero-Porto

Current Time: Mar 4, 2015 at 7:45:59 PM

Latest Report: Mar 4, 2015 at 7:00 PM


Visibility: N/A

Pressure: 29.86 "Hg

Humidity: 70%

Dew point: 72 °F

Location of Caxias do SulLocation

Historic Weather in Caxias do Sul — Graph

°F

Caxias do Sul temperature yesterday

Maximum temperature yesterday: 93 °F (at 1:00 PM)
Minimum temperature yesterday: 73 °F (at 4:00 AM)
Average temperature yesterday: 82 °F

Past Weeks' High & Low Weather Summary

 TemperatureHumidityPressure
High93 °F (Mar 3, 1:00 PM)100% (Feb 20, 2:00 AM)30.12 "Hg (Feb 20, 2:00 AM)
Low32 °F (Feb 24, 8:00 AM)40% (Mar 1, 3:00 PM)29.59 "Hg (Feb 19, 4:00 PM)
Average77 °F79%29.92 "Hg
* Reported Feb 17 7:00 PM — Mar 4 6:00 PM, Caxias do Sul, Weather by CustomWeather, © 2015

Note: Actual official high and low records may vary slightly from our data, if they occured in-between our weather recording intervals... More about our weather records

Advertising

Caxias do Sul weather history for previous 24 hours

 ConditionsComfort  
Time TempWeatherWind HumidityBarometerVisibility
6:00 PM
Wed, Mar 4
86 °FPartly cloudy.12 mph62%29.83 "HgN/A
5:00 PM91 °FScattered clouds.8 mph49%29.83 "HgN/A
4:00 PM93 °FPassing clouds.5 mph47%29.83 "HgN/A
3:00 PM91 °FPassing clouds.3 mph52%29.86 "HgN/A
2:00 PM90 °FSunny.7 mph59%29.86 "Hg10 mi
1:00 PM91 °FSunny.6 mph52%29.89 "Hg10 mi
12:00 PM88 °FSunny.8 mph55%29.89 "Hg10 mi
11:00 AM88 °FSunny.6 mph55%29.92 "Hg10 mi
10:00 AM84 °FSunny.9 mph58%29.92 "Hg10 mi
9:00 AM81 °FSunny.7 mph66%29.92 "Hg10 mi
8:00 AM77 °FSunny.5 mph83%29.92 "Hg10 mi
7:00 AM73 °FSunny.2 mph89%29.89 "Hg10 mi
6:00 AM72 °FSunny.5 mph94%29.89 "Hg10 mi
5:00 AM72 °FClear.5 mph94%29.86 "Hg10 mi
4:00 AM73 °FClear.7 mph89%29.86 "Hg10 mi
3:00 AM73 °FClear.6 mph89%29.86 "Hg10 mi
2:00 AM73 °FClear.8 mph89%29.86 "Hg10 mi
1:00 AM73 °FClear.8 mph89%29.89 "Hg10 mi
12:00 AM75 °FClear.8 mph83%29.89 "Hg10 mi
11:00 PM
Tue, Mar 3
75 °FClear.7 mph83%29.89 "Hg10 mi
10:00 PM77 °FClear.14 mph79%29.89 "Hg10 mi
9:00 PM79 °FClear.13 mph70%29.89 "Hg10 mi
8:00 PM81 °FClear.13 mph66%29.86 "Hg10 mi
7:00 PM82 °FClear.15 mph66%29.89 "Hg10 mi
Weather by CustomWeather, © 2015

See weather overviewHow to use our weather pages